SCP
0 0 0 0 0 0 0 0 0 0 0 0 0 0 0 0 0 0 0 0 0 0 0 0 0 0 0 0 0 0 0 0 0 0 0 0 0 0
0 0 0 0 0 0 0 0 0 0 0 0 0 0 0 0 0 0 0 0 0 0 0 0 0 0 0 0 0 0 0 0 0 0 0 0 0 0
0 0 0 0 0 0 0 0 0 0 0 0 0 0 0 0 0 0 0 0 0 0 0 0 0 0 0 0 0 0 0 0 0 0 0 0 0 0
0 0 0 0 0 0 0 0 0 0 0 0 0 0 0 0 0 0 0 0 0 0 0 0 0 0 0 0 0 0 0 0 0 0 0 0 0 0
0 0 0 0 0 0 0 0 0 0 0 0 0 0 0 0 0 0 0 0 0 0 0 0 0 0 0 0 0 0 0 0 0 0 0 0 0 0
0 0 0 0 0 0 0 0 0 0 0 0 0 0 0 0 0 0 0 -0 0 0 0 0 0 0 0 0 0 0 0 0 0 0 0 0 0 0
0 0 0 0 0 0 0 0 0 0 0 0 0 0 0 0 0 0 0 0 -0 -0 0 0 0 0 0 0 0 0 0 0 0 0 0 0 0 0
0 0 0 0 0 0 0 0 0 0 0 0 0 0 0 0 0 0 0 0 -0 0 -0 -0 -0 -0 0 0 0 0 0 0 0 0 0 0 0 0
-0 -0 -0 0 0 0 0 0 0 0 0 0 0 0 0 0 0 0 0 0 0 -0 -0 -0 -0 -0 -0 -0 0 0 0 0 0 0 0 0 0 0
-0 0 0 0 0 0 0 0 0 0 0 0 0 0 0 0 0 0 0 0 0 0 0 0 -0 0 -0 -0 0 0 0 0 0 0 0 0 0 0
0 0 0 0 0 0 0 0 0 0 0 0 0 0 0 0 0 0 0 0 0 0 0 0 0 0 0 0 0 0 0 0 0 0 0 0 0 0
0 0 0 -0 0 0 0 0 0 0 0 0 0 0 0 0 0 0 0 0 0 0 0 0 0 0 0 0 0 0 0 0 0 0 0 0 0 0
0 0 0 -0 -0 0 0 0 0 0 0 0 0 0 0 0 0 0 0 0 0 0 0 0 0 0 0 0 0 0 0 0 0 0 0 0 0 0
0 0 0 0 0 0 0 0 0 0 0 0 0 0 0 0 0 0 0 0 0 0 0 0 0 0 0 0 0 0 0 0 -0 0 0 0 0 0
0 0 0 0 0 0 0 0 0 0 0 0 0 0 0 0 0 0 0 0 0 0 -0 -0 0 0 0 0 0 -0 0 0 0 0 0 0 0 0
0 0 0 0 0 0 0 0 0 0 0 0 0 0 0 0 0 0 0 0 0 0 0 0 0 0 0 0 0 0 0 0 0 0 0 0 0 -0
0 0 0 0 0 0 0 0 0 0 0 0 0 0 0 0 0 0 0 0 0 0 0 0 0 0 0 0 0 0 0 0 0 -0 0 -0 0 -0
0 0 0 0 0 0 0 0 0 0 0 0 0 0 0 0 0 0 0 0 0 0 0 0 0 0 0 0 -0 0 0 -0 -0 0 -0 0 0 0
0 -0 -0 0 0 0 0 0 0 0 0 0 0 0 0 0 0 0 0 0 0 0 0 0 0 0 0 0 0 -0 0 0 0 0 0 0 0 -0
0 0 0 0 0 0 0 0 0 0 0 0 0 0 0 0 0 0 0 0 0 0 0 0 0 0 0 0 0 -0 -0 0 0 0 -0 0 0 -0
0 -0 0 0 0 0 0 0 0 0 0 0 0 0 0 0 0 0 0 0 0 0 0 0 0 0 0 0 0 0 -0 -0 -0 -0 -0 -0 -0 -0
0 0 0 0 0 0 0 0 0 0 0 0 0 0 0 0 0 0 0 0 0 0 0 0 -0 0 0 0 0 0 0 0 0 -0 -0 -0 -0 -0
0 0 0 0 0 0 0 0 0 0 0 0 0 0 0 0 0 0 0 0 0 0 0 0 0 0 0 0 0 0 0 0 0 -0 -0 -0 -0 -0
Wind_Speed_500mb
45 47 51 54 55 53 49 46 45 59 72 54 41 47 48 53 53 58 67 59 54 55 74 66 85 86 87 82 77 66 55 44 39 33 28 27 24 27
48 48 48 52 55 55 53 52 50 52 65 71 65 63 60 57 54 47 47 43 48 54 61 68 71 70 85 84 76 64 56 46 43 38 37 35 32 32
40 41 43 46 51 55 54 53 51 52 67 87 81 82 80 74 63 57 54 48 39 48 56 56 68 81 86 85 78 73 59 68 54 48 42 43 45 43
33 38 43 44 45 48 49 53 49 48 56 75 74 75 71 63 61 59 59 49 45 45 47 58 54 78 77 81 87 73 83 73 69 67 60 52 60 54
32 38 42 47 47 49 55 59 59 58 58 64 70 66 62 57 53 51 48 31 18 21 38 42 43 48 51 82 80 78 77 73 61 63 58 66 65 63
35 38 41 45 46 52 57 59 64 70 76 79 81 82 75 65 61 59 60 58 56 32 22 12 18 34 49 59 70 79 84 59 58 72 69 74 72 63
41 42 45 40 41 45 52 63 69 75 79 81 86 88 82 76 67 61 54 53 52 43 40 25 10 9 12 15 45 52 62 63 60 48 51 56 60 64
38 43 42 42 50 57 63 64 66 66 66 68 75 78 80 77 68 54 49 49 54 44 48 51 50 42 25 19 21 16 13 15 37 48 44 46 47 48
36 37 35 46 56 61 60 62 65 62 56 60 63 62 61 61 64 56 48 38 49 57 59 60 48 50 52 52 22 16 10 15 17 21 31 37 46 52
35 39 46 49 50 52 56 59 63 67 63 56 50 50 46 43 45 47 47 51 47 38 32 49 45 45 63 49 55 47 44 38 35 32 30 36 43 48
40 41 38 43 44 47 54 61 64 69 68 64 55 48 42 33 27 34 33 29 30 29 25 25 39 32 15 19 15 11 18 34 57 54 51 49 53 59
38 42 45 44 46 46 50 58 63 69 80 78 73 58 42 34 20 10 8 17 27 37 19 34 31 22 13 6 18 11 6 17 26 31 39 43 48 52
48 52 52 48 50 57 54 56 60 61 58 70 79 74 58 42 28 4 5 12 21 23 29 27 30 27 17 31 24 24 14 24 21 21 21 27 37 37
48 45 46 46 46 55 57 55 53 59 68 58 62 72 58 48 40 28 21 25 27 27 23 16 23 21 23 26 23 30 27 22 26 13 2 11 9 13
43 42 41 42 48 53 58 67 76 74 70 75 58 53 57 40 31 27 28 30 29 23 15 17 17 13 15 20 28 27 28 12 14 13 3 12 8 11
36 38 41 43 45 50 56 63 72 72 76 72 69 54 54 46 48 38 31 33 27 16 24 14 7 5 8 11 20 23 10 21 7 7 4 9 15 18
34 45 54 56 57 57 54 56 65 70 71 81 83 65 52 46 41 38 33 23 35 42 24 15 14 9 7 14 22 13 20 13 12 7 8 11 16 18
41 51 61 61 62 63 60 56 56 61 65 72 67 82 79 39 38 36 35 32 33 28 29 20 16 15 17 15 22 9 11 12 12 10 10 10 14 13
47 53 60 60 60 60 57 55 54 51 54 60 69 78 79 69 51 41 36 37 36 27 24 21 17 17 14 17 8 14 17 17 15 16 12 5 8 11
48 52 56 56 57 57 55 54 52 46 48 56 64 70 68 69 64 47 36 35 34 37 38 22 26 28 19 16 11 21 16 12 14 14 12 10 8 10
50 47 51 52 54 52 51 53 53 49 50 50 56 62 67 66 62 61 46 43 29 25 30 27 27 24 20 14 14 17 20 20 16 17 12 8 7 10
46 46 49 52 55 54 52 53 56 54 52 51 45 49 56 63 65 55 58 53 40 27 24 28 23 25 20 18 17 18 24 26 28 23 19 17 13 11
44 47 49 53 57 58 56 56 58 56 53 53 52 42 48 54 50 49 55 56 55 46 40 27 24 21 24 20 18 18 17 17 21 22 22 22 22 23
Wind_Direction_500mb
307 309 313 313 312 311 309 309 319 321 313 320 318 309 306 304 313 307 307 300 291 258 269 245 249 242 243 232 231 230 227 228 234 237 240 242 249 259
317 314 313 312 314 315 315 314 310 305 306 307 311 306 301 298 302 308 314 313 291 284 264 252 255 253 246 242 233 230 234 240 240 243 253 251 257 254
321 322 322 322 322 320 322 319 310 306 304 299 303 304 304 301 292 297 299 302 302 280 273 262 243 251 243 237 231 227 233 242 240 249 255 266 266 263
346 343 343 346 348 350 356 355 348 335 321 312 315 315 313 312 303 296 301 299 291 290 291 279 272 246 239 227 226 218 229 239 243 246 247 252 260 257
2 356 353 347 351 351 349 348 347 344 339 335 333 335 334 327 312 297 294 298 341 332 283 280 289 268 254 234 231 228 231 233 237 252 251 257 256 257
1 356 355 355 352 346 346 344 337 335 332 330 329 330 329 336 335 323 306 290 295 302 350 297 290 272 274 262 239 235 232 239 260 255 253 251 249 250
4 2 6 10 0 345 335 332 330 325 322 318 316 317 320 321 323 331 328 321 306 313 294 291 305 54 68 262 242 245 241 241 251 249 250 246 242 246
1 4 359 358 348 346 344 339 331 329 327 315 306 303 306 307 310 312 324 319 318 310 312 294 299 286 301 346 74 113 130 208 242 247 244 244 246 249
358 351 359 360 352 346 347 346 344 340 330 326 318 313 309 303 298 302 305 308 307 309 322 307 307 292 288 286 282 279 272 192 211 237 242 246 245 249
30 24 12 360 356 350 358 360 7 7 1 347 329 318 313 305 290 285 290 293 309 318 328 318 310 297 273 291 287 271 262 267 265 265 270 261 263 268
32 21 11 8 8 7 6 14 18 16 15 10 1 345 329 313 289 297 281 293 321 342 358 336 352 334 320 318 305 238 272 268 265 268 267 269 275 281
33 32 25 20 13 11 11 10 10 15 14 14 13 11 1 350 340 333 275 315 320 326 323 336 341 8 356 308 34 55 218 252 269 269 259 264 265 267
36 36 36 28 19 18 12 8 8 6 10 17 16 15 21 18 10 14 269 329 329 318 323 326 327 353 5 344 317 348 341 332 301 283 264 269 262 263
40 35 32 30 26 22 18 14 17 13 19 14 15 17 20 31 37 37 12 337 323 317 327 318 310 327 333 333 350 334 329 326 308 261 209 283 258 259
40 35 31 30 28 25 26 24 25 21 20 22 19 9 13 5 359 2 354 348 348 2 350 351 294 309 324 327 334 343 340 314 32 178 111 337 309 298
33 27 26 24 26 26 25 27 26 26 25 22 25 22 17 4 15 16 13 20 17 17 8 8 18 359 354 334 320 331 314 311 327 43 343 7 341 328
13 19 18 15 14 13 24 23 29 26 29 25 24 24 20 21 23 19 15 33 15 13 45 52 52 40 23 323 340 15 340 62 25 26 23 358 352 354
20 20 17 15 15 11 11 19 23 25 25 28 32 22 21 16 27 26 23 16 7 25 27 37 19 8 8 21 34 38 40 54 26 17 2 349 4 29
22 19 17 15 14 14 15 19 22 25 22 30 36 28 25 20 21 9 13 28 36 34 26 34 27 16 6 356 358 18 26 28 21 13 15 21 32 39
24 19 16 15 16 18 20 22 25 27 29 27 34 39 32 31 23 29 30 26 34 40 41 46 29 27 29 30 40 25 17 19 20 31 39 60 67 36
21 19 20 21 22 24 25 30 29 28 25 26 30 36 36 33 28 25 25 25 29 31 29 28 30 24 17 20 24 38 40 23 35 27 36 53 49 31
26 27 26 27 28 28 29 32 31 28 26 26 33 29 36 32 31 33 28 28 28 20 15 7 0 10 21 42 59 53 44 52 44 44 35 43 50 16
28 29 29 29 29 30 31 33 31 28 27 25 30 31 30 25 32 31 33 32 24 24 23 19 13 24 40 48 48 51 50 44 33 31 36 37 38 25
Wind_Speed_850mb
45 47 51 54 55 53 49 46 45 59 72 54 41 47 48 53 53 58 67 59 54 55 74 66 85 86 87 82 77 66 55 44 39 33 28 27 24 27
48 48 48 52 55 55 53 52 50 52 65 71 65 63 60 57 54 47 47 43 48 54 61 68 71 70 85 84 76 64 56 46 43 38 37 35 32 32
40 41 43 46 51 55 54 53 51 52 67 87 81 82 80 74 63 57 54 48 39 48 56 56 68 81 86 85 78 73 59 68 54 48 42 43 45 43
33 38 43 44 45 48 49 53 49 48 56 75 74 75 71 63 61 59 59 49 45 45 47 58 54 78 77 81 87 73 83 73 69 67 60 52 60 54
32 38 42 47 47 49 55 59 59 58 58 64 70 66 62 57 53 51 48 31 18 21 38 42 43 48 51 82 80 78 77 73 61 63 58 66 65 63
35 38 41 45 46 52 57 59 64 70 76 79 81 82 75 65 61 59 60 58 56 32 22 12 18 34 49 59 70 79 84 59 58 72 69 74 72 63
41 42 45 40 41 45 52 63 69 75 79 81 86 88 82 76 67 61 54 53 52 43 40 25 10 9 12 15 45 52 62 63 60 48 51 56 60 64
38 43 42 42 50 57 63 64 66 66 66 68 75 78 80 77 68 54 49 49 54 44 48 51 50 42 25 19 21 16 13 15 37 48 44 46 47 48
36 37 35 46 56 61 60 62 65 62 56 60 63 62 61 61 64 56 48 38 49 57 59 60 48 50 52 52 22 16 10 15 17 21 31 37 46 52
35 39 46 49 50 52 56 59 63 67 63 56 50 50 46 43 45 47 47 51 47 38 32 49 45 45 63 49 55 47 44 38 35 32 30 36 43 48
40 41 38 43 44 47 54 61 64 69 68 64 55 48 42 33 27 34 33 29 30 29 25 25 39 32 15 19 15 11 18 34 57 54 51 49 53 59
38 42 45 44 46 46 50 58 63 69 80 78 73 58 42 34 20 10 8 17 27 37 19 34 31 22 13 6 18 11 6 17 26 31 39 43 48 52
48 52 52 48 50 57 54 56 60 61 58 70 79 74 58 42 28 4 5 12 21 23 29 27 30 27 17 31 24 24 14 24 21 21 21 27 37 37
48 45 46 46 46 55 57 55 53 59 68 58 62 72 58 48 40 28 21 25 27 27 23 16 23 21 23 26 23 30 27 22 26 13 2 11 9 13
43 42 41 42 48 53 58 67 76 74 70 75 58 53 57 40 31 27 28 30 29 23 15 17 17 13 15 20 28 27 28 12 14 13 3 12 8 11
36 38 41 43 45 50 56 63 72 72 76 72 69 54 54 46 48 38 31 33 27 16 24 14 7 5 8 11 20 23 10 21 7 7 4 9 15 18
34 45 54 56 57 57 54 56 65 70 71 81 83 65 52 46 41 38 33 23 35 42 24 15 14 9 7 14 22 13 20 13 12 7 8 11 16 18
41 51 61 61 62 63 60 56 56 61 65 72 67 82 79 39 38 36 35 32 33 28 29 20 16 15 17 15 22 9 11 12 12 10 10 10 14 13
47 53 60 60 60 60 57 55 54 51 54 60 69 78 79 69 51 41 36 37 36 27 24 21 17 17 14 17 8 14 17 17 15 16 12 5 8 11
48 52 56 56 57 57 55 54 52 46 48 56 64 70 68 69 64 47 36 35 34 37 38 22 26 28 19 16 11 21 16 12 14 14 12 10 8 10
50 47 51 52 54 52 51 53 53 49 50 50 56 62 67 66 62 61 46 43 29 25 30 27 27 24 20 14 14 17 20 20 16 17 12 8 7 10
46 46 49 52 55 54 52 53 56 54 52 51 45 49 56 63 65 55 58 53 40 27 24 28 23 25 20 18 17 18 24 26 28 23 19 17 13 11
44 47 49 53 57 58 56 56 58 56 53 53 52 42 48 54 50 49 55 56 55 46 40 27 24 21 24 20 18 18 17 17 21 22 22 22 22 23
Wind_Direction_850mb
307 309 313 313 312 311 309 309 319 321 313 320 318 309 306 304 313 307 307 300 291 258 269 245 249 242 243 232 231 230 227 228 234 237 240 242 249 259
317 314 313 312 314 315 315 314 310 305 306 307 311 306 301 298 302 308 314 313 291 284 264 252 255 253 246 242 233 230 234 240 240 243 253 251 257 254
321 322 322 322 322 320 322 319 310 306 304 299 303 304 304 301 292 297 299 302 302 280 273 262 243 251 243 237 231 227 233 242 240 249 255 266 266 263
346 343 343 346 348 350 356 355 348 335 321 312 315 315 313 312 303 296 301 299 291 290 291 279 272 246 239 227 226 218 229 239 243 246 247 252 260 257
2 356 353 347 351 351 349 348 347 344 339 335 333 335 334 327 312 297 294 298 341 332 283 280 289 268 254 234 231 228 231 233 237 252 251 257 256 257
1 356 355 355 352 346 346 344 337 335 332 330 329 330 329 336 335 323 306 290 295 302 350 297 290 272 274 262 239 235 232 239 260 255 253 251 249 250
4 2 6 10 0 345 335 332 330 325 322 318 316 317 320 321 323 331 328 321 306 313 294 291 305 54 68 262 242 245 241 241 251 249 250 246 242 246
1 4 359 358 348 346 344 339 331 329 327 315 306 303 306 307 310 312 324 319 318 310 312 294 299 286 301 346 74 113 130 208 242 247 244 244 246 249
358 351 359 360 352 346 347 346 344 340 330 326 318 313 309 303 298 302 305 308 307 309 322 307 307 292 288 286 282 279 272 192 211 237 242 246 245 249
30 24 12 360 356 350 358 360 7 7 1 347 329 318 313 305 290 285 290 293 309 318 328 318 310 297 273 291 287 271 262 267 265 265 270 261 263 268
32 21 11 8 8 7 6 14 18 16 15 10 1 345 329 313 289 297 281 293 321 342 358 336 352 334 320 318 305 238 272 268 265 268 267 269 275 281
33 32 25 20 13 11 11 10 10 15 14 14 13 11 1 350 340 333 275 315 320 326 323 336 341 8 356 308 34 55 218 252 269 269 259 264 265 267
36 36 36 28 19 18 12 8 8 6 10 17 16 15 21 18 10 14 269 329 329 318 323 326 327 353 5 344 317 348 341 332 301 283 264 269 262 263
40 35 32 30 26 22 18 14 17 13 19 14 15 17 20 31 37 37 12 337 323 317 327 318 310 327 333 333 350 334 329 326 308 261 209 283 258 259
40 35 31 30 28 25 26 24 25 21 20 22 19 9 13 5 359 2 354 348 348 2 350 351 294 309 324 327 334 343 340 314 32 178 111 337 309 298
33 27 26 24 26 26 25 27 26 26 25 22 25 22 17 4 15 16 13 20 17 17 8 8 18 359 354 334 320 331 314 311 327 43 343 7 341 328
13 19 18 15 14 13 24 23 29 26 29 25 24 24 20 21 23 19 15 33 15 13 45 52 52 40 23 323 340 15 340 62 25 26 23 358 352 354
20 20 17 15 15 11 11 19 23 25 25 28 32 22 21 16 27 26 23 16 7 25 27 37 19 8 8 21 34 38 40 54 26 17 2 349 4 29
22 19 17 15 14 14 15 19 22 25 22 30 36 28 25 20 21 9 13 28 36 34 26 34 27 16 6 356 358 18 26 28 21 13 15 21 32 39
24 19 16 15 16 18 20 22 25 27 29 27 34 39 32 31 23 29 30 26 34 40 41 46 29 27 29 30 40 25 17 19 20 31 39 60 67 36
21 19 20 21 22 24 25 30 29 28 25 26 30 36 36 33 28 25 25 25 29 31 29 28 30 24 17 20 24 38 40 23 35 27 36 53 49 31
26 27 26 27 28 28 29 32 31 28 26 26 33 29 36 32 31 33 28 28 28 20 15 7 0 10 21 42 59 53 44 52 44 44 35 43 50 16
28 29 29 29 29 30 31 33 31 28 27 25 30 31 30 25 32 31 33 32 24 24 23 19 13 24 40 48 48 51 50 44 33 31 36 37 38 25